Wind_Speed
2 5 7 8 9 10 9 5 4 3 5 7 8 9 10 13 15 13 5 1 2 2 7 3 2 4 6 9 18 18 15 11 8 3 4 7 10 13 19 25 24 23 23 18 15 15 16 18 19 20 21 20 20 20 20 20 19 17 15 14 13 12 11 13 15 18 20 23 21 20 20 19 17 16 14 13 14 15 15 15 16 16 16 16 15 15 14 13 12 12 12 12 11 11 10 9 8
3 8 10 9 10 8 5 4 5 5 6 8 8 9 11 13 13 11 9 6 2 8 6 4 4 2 2 10 17 17 15 12 12 9 8 13 15 16 20 22 23 23 21 18 16 16 15 18 20 21 21 21 20 21 21 21 19 17 15 14 13 12 12 14 17 19 22 23 21 20 19 18 16 14 13 12 13 15 15 16 16 16 15 15 14 14 13 12 12 12 11 11 10 11 11 10 9
8 11 12 10 9 7 5 4 7 6 7 9 8 10 12 14 9 4 6 2 9 9 4 4 3 0 1 10 15 14 11 10 15 12 10 15 13 15 20 21 22 21 21 20 18 17 15 18 21 21 21 21 21 22 22 21 19 17 15 14 13 12 13 16 18 20 23 23 21 20 19 17 15 13 13 13 14 15 15 16 16 16 15 14 13 13 12 12 11 10 10 10 10 10 11 11 10
8 9 11 10 6 6 5 5 7 6 9 8 7 13 12 13 5 9 8 8 9 4 4 1 2 7 11 14 14 12 10 9 13 11 9 12 13 17 22 21 21 19 19 19 19 18 15 19 22 22 22 22 22 22 22 21 19 16 15 14 13 12 14 17 19 21 23 22 21 20 19 16 14 13 13 14 15 16 16 16 15 15 14 13 12 11 11 11 10 10 10 9 9 10 10 10 10
9 11 12 9 5 4 5 5 6 7 9 8 8 13 9 9 7 13 9 5 4 3 1 3 3 12 15 12 9 8 8 9 11 14 13 14 18 22 22 21 19 18 18 19 20 18 15 21 23 22 22 22 22 22 21 20 17 15 14 14 12 13 16 19 20 21 22 21 21 20 19 15 13 14 14 14 16 17 16 15 15 14 13 12 11 10 9 9 9 10 9 8 8 10 10 10 10
10 13 12 10 6 5 5 6 7 8 10 10 9 10 9 3 6 8 6 2 3 1 3 3 5 13 12 10 10 8 6 9 11 14 17 17 21 23 21 19 18 18 19 19 19 16 16 22 23 22 22 21 22 21 20 18 15 15 14 13 12 15 18 21 20 20 21 21 20 19 17 15 13 14 14 15 16 16 16 15 14 13 12 10 9 9 8 8 9 9 9 8 8 9 10 10 11
11 9 7 8 5 4 6 8 8 9 11 13 11 13 17 3 8 2 1 3 2 2 4 3 9 16 10 8 10 12 14 13 13 14 20 19 21 22 20 18 18 19 20 19 17 16 18 23 23 22 22 21 21 20 18 15 14 14 13 12 13 17 20 20 19 19 21 20 18 17 16 15 13 13 13 15 15 16 16 15 13 12 10 9 8 8 7 8 10 10 9 8 8 10 10 12 14
13 7 4 6 5 5 7 9 10 9 11 15 14 11 11 5 8 2 2 1 2 5 5 5 6 14 12 11 9 10 19 18 16 19 23 21 21 21 19 19 19 20 20 18 17 19 21 23 23 21 21 20 19 17 16 13 13 13 12 12 14 18 19 17 17 18 21 19 17 16 15 15 13 12 13 13 13 14 15 14 12 10 9 8 8 7 7 9 10 10 10 9 9 10 12 14 19
12 8 4 6 6 6 8 9 10 11 13 16 16 8 3 3 3 2 3 4 2 5 8 6 5 10 14 15 12 9 15 16 18 21 22 21 21 19 18 19 20 20 19 19 21 20 19 21 22 20 19 17 16 15 13 13 12 12 10 11 14 16 17 15 16 19 20 17 16 15 15 14 13 12 12 12 12 12 12 12 11 9 8 8 8 7 8 9 9 10 10 9 9 10 13 17 21
7 7 5 6 6 8 9 9 9 11 13 16 16 8 4 6 4 5 6 7 4 4 8 10 6 13 16 14 11 8 13 15 18 18 19 20 20 19 18 18 19 20 19 21 23 19 18 20 19 18 17 14 13 13 12 12 11 11 9 11 12 13 14 14 16 19 19 16 14 14 14 13 12 12 12 12 12 11 10 10 9 7 7 9 8 8 8 8 8 9 9 9 9 10 13 18 21
5 6 5 6 6 8 8 8 10 10 12 15 13 4 2 2 6 9 7 9 8 6 7 9 7 17 16 12 8 9 16 16 17 16 18 19 18 19 18 18 19 20 18 19 21 20 18 17 17 16 15 13 12 12 11 11 10 9 9 11 12 11 11 12 15 18 17 14 12 13 13 13 12 12 11 11 11 10 8 7 7 6 8 10 9 8 8 7 8 9 9 8 8 10 13 18 20
6 6 6 6 7 7 8 9 10 11 13 13 8 4 4 5 8 7 7 10 9 9 9 8 9 17 13 10 7 11 17 15 16 16 17 18 18 18 17 18 19 19 18 19 20 20 19 16 15 14 14 13 12 11 10 10 9 9 10 11 11 11 10 10 14 16 15 12 10 11 12 12 12 11 11 10 9 8 7 6 5 5 9 10 9 8 8 7 8 8 8 8 8 10 12 16 19
6 7 6 7 7 8 9 10 10 11 9 5 4 4 6 6 7 6 8 11 7 8 10 8 10 16 11 9 8 9 15 14 16 16 17 18 17 18 17 18 19 18 19 19 20 21 19 17 15 13 14 13 12 11 10 10 9 9 11 11 11 11 11 10 11 13 14 12 9 10 11 11 11 11 10 9 9 8 7 6 5 6 10 10 9 8 7 7 7 7 7 7 8 9 12 14 16
7 7 6 7 7 9 9 9 10 8 5 3 4 7 7 3 5 7 9 11 8 9 9 15 14 15 11 9 8 7 12 15 16 16 17 18 17 18 17 18 19 19 19 20 21 21 19 16 16 14 14 13 11 10 10 10 9 9 11 11 12 12 12 11 11 11 12 13 10 10 10 10 10 10 10 9 9 8 8 7 7 8 11 10 9 8 7 7 6 6 5 6 8 9 11 13 14
8 6 6 7 6 9 8 10 10 7 7 4 6 11 7 5 7 9 11 12 9 4 6 16 11 10 9 8 8 9 15 18 17 16 17 17 17 17 17 18 18 19 20 21 22 22 19 16 17 15 15 14 11 10 8 9 9 10 12 11 12 13 13 13 12 11 11 11 11 11 11 10 10 9 10 9 9 10 10 9 8 9 11 11 9 8 7 7 6 6 5 5 7 9 11 12 14
7 6 6 6 7 8 8 9 8 8 5 5 8 9 7 8 7 9 10 9 5 11 13 14 11 7 7 8 13 17 20 20 17 17 18 17 16 16 16 16 17 18 17 19 22 22 20 18 18 18 17 14 13 12 9 10 12 12 13 12 13 14 14 14 13 13 11 10 10 11 12 11 10 9 9 9 9 9 10 11 9 10 12 11 10 9 7 7 6 6 6 5 6 8 11 14 18
6 6 6 6 8 9 9 9 7 9 2 9 5 9 7 8 8 7 10 6 9 17 16 15 14 13 11 13 21 23 22 20 18 18 18 16 16 15 14 14 15 14 14 20 20 21 24 22 20 20 18 16 16 15 13 13 14 14 13 13 14 15 15 15 14 13 12 9 9 10 10 9 9 8 8 8 7 8 9 11 11 10 12 12 10 9 8 7 7 7 7 5 6 8 11 16 18
6 5 6 7 8 9 11 9 5 5 3 5 1 8 9 9 10 8 9 7 12 16 15 16 17 17 17 19 22 23 21 19 18 18 17 15 14 14 13 14 13 14 18 20 18 21 24 23 21 22 21 20 19 16 15 14 14 15 13 12 13 14 15 15 14 11 10 9 8 10 9 7 6 6 8 8 7 8 10 11 11 11 12 13 11 9 8 7 7 7 8 7 7 8 12 15 15
7 6 7 8 8 11 10 3 4 5 4 4 2 5 9 9 11 7 7 10 12 15 12 15 17 15 14 16 18 19 19 18 17 17 17 15 13 13 13 12 14 17 17 17 18 20 22 21 21 24 23 22 21 18 16 14 14 16 14 12 11 12 13 13 12 10 9 9 9 10 10 8 7 6 8 8 8 8 9 10 11 12 13 12 12 10 8 7 6 7 9 8 8 9 11 12 12
8 7 7 9 11 14 7 6 8 8 5 1 1 6 7 8 11 8 9 11 11 14 12 14 15 13 12 12 14 16 16 16 16 14 15 14 13 12 11 13 16 16 17 17 19 19 21 21 21 22 22 21 20 20 17 13 14 17 16 14 12 11 12 12 12 12 12 11 11 11 11 12 12 11 9 8 9 9 7 8 10 11 13 13 12 11 9 8 7 7 9 10 10 10 9 8 7
7 8 9 12 10 10 5 3 2 3 4 4 1 6 6 4 6 7 12 11 8 12 15 17 17 15 12 11 12 14 14 14 14 13 12 12 12 11 14 18 15 16 15 16 18 18 20 21 21 21 20 19 18 19 17 15 16 19 19 16 14 14 14 14 14 15 15 13 12 12 13 14 13 13 12 10 10 9 6 6 8 10 12 12 13 12 10 10 9 8 9 12 12 10 10 10 9
7 9 13 16 9 9 6 2 3 2 1 4 2 4 5 3 3 4 12 7 2 8 16 19 19 16 14 14 12 12 13 12 12 11 10 10 12 14 20 18 16 16 14 14 13 14 18 19 19 19 19 19 18 18 18 18 18 18 20 18 17 16 15 15 16 16 15 15 14 14 14 13 12 12 13 13 11 8 5 4 5 7 10 11 13 14 11 11 11 10 10 12 13 11 9 8 10
8 8 13 16 11 9 6 3 3 3 5 8 4 3 2 4 4 7 8 8 14 17 20 18 17 17 17 15 11 11 11 10 9 9 10 11 14 16 18 16 14 16 15 14 13 12 17 18 18 19 19 20 19 19 18 18 17 16 18 18 18 16 16 15 15 14 14 14 14 13 14 12 12 13 12 13 13 10 7 6 6 6 8 10 13 14 12 12 13 12 12 13 14 12 10 10 10
10 9 12 12 9 9 6 0 4 3 10 10 4 3 2 8 8 8 6 12 19 20 19 18 16 16 16 14 11 10 9 8 7 9 12 13 17 18 17 16 14 15 15 15 13 12 14 15 16 19 19 19 18 17 16 16 15 14 15 17 16 14 15 14 10 9 10 12 12 10 11 13 13 13 11 12 14 14 12 12 11 9 11 11 13 15 14 15 15 15 15 14 14 13 12 11 12
12 12 12 10 9 10 7 2 2 6 10 6 4 4 9 12 7 9 9 11 19 20 17 17 16 15 14 13 12 9 8 7 7 11 12 14 20 20 18 17 15 14 15 15 14 12 12 13 14 16 19 18 15 13 12 13 12 11 12 15 17 12 9 9 5 6 8 9 12 12 12 13 13 12 12 13 15 15 15 15 14 12 14 13 13 15 16 17 16 16 17 15 14 15 13 11 12
12 14 13 11 8 9 10 7 5 7 7 6 8 9 13 10 6 7 11 12 18 19 17 17 15 15 13 12 12 9 8 7 8 11 12 14 19 21 18 15 14 13 15 15 15 14 13 13 13 14 16 16 14 11 9 10 10 9 10 12 15 10 6 6 7 10 11 10 13 15 14 13 14 13 13 14 16 16 16 16 14 14 16 15 14 16 17 18 18 16 16 16 15 15 14 11 12
9 11 14 14 10 8 9 9 8 7 7 10 11 11 11 8 5 8 11 12 14 17 17 17 14 13 12 11 11 8 8 8 10 11 13 14 14 17 18 14 14 14 14 14 14 15 14 14 13 12 14 14 13 12 9 10 10 10 9 9 9 7 7 8 10 12 12 13 15 15 14 14 14 14 13 13 14 16 16 16 15 15 17 16 15 16 17 18 18 17 16 16 16 14 12 12 14
6 5 10 14 13 10 10 10 10 9 9 12 12 13 11 8 9 10 12 12 13 16 16 18 15 13 12 10 10 7 7 10 11 12 12 12 11 14 17 15 15 14 13 12 12 14 15 14 13 12 13 13 12 11 10 10 10 9 9 7 7 8 9 10 11 10 9 11 13 13 12 12 13 14 15 13 12 13 15 16 16 16 16 16 16 17 19 18 18 19 17 15 15 14 13 13 14
9 7 9 10 13 13 11 11 11 12 9 11 11 12 11 10 14 13 13 13 14 17 16 16 14 12 12 10 8 7 8 10 11 11 11 12 12 13 16 16 15 14 13 14 13 13 14 14 14 13 12 12 12 12 12 11 10 9 8 8 8 9 9 10 10 8 7 8 10 11 12 13 15 17 18 17 14 11 12 15 16 15 15 17 18 17 18 16 15 17 16 14 14 15 15 14 15
11 10 8 7 10 11 12 10 12 14 9 11 11 8 9 11 16 17 15 15 15 18 16 14 11 10 11 9 8 7 8 9 9 11 12 12 12 13 14 15 14 13 13 13 13 13 14 13 12 12 12 11 12 12 12 11 8 8 7 8 9 9 8 9 8 6 7 9 10 11 13 14 14 16 16 15 15 14 13 14 15 16 16 17 18 17 17 15 15 16 14 13 13 14 15 15 16
10 10 7 7 7 9 13 12 13 13 9 13 13 7 8 12 17 17 15 15 16 18 18 15 12 9 9 9 8 8 7 7 9 12 13 13 12 12 12 12 13 13 13 12 11 11 11 9 6 8 8 8 9 9 8 7 6 7 6 8 9 8 6 7 7 7 8 10 11 12 12 12 12 13 13 12 14 15 14 14 15 18 18 18 18 18 19 17 16 17 15 14 14 15 16 16 16
8 9 8 8 8 8 14 16 14 14 11 15 14 8 7 13 16 13 14 14 14 16 19 17 14 12 9 9 9 7 6 7 10 12 12 12 12 12 12 12 12 12 13 12 11 10 10 8 5 5 6 6 8 8 8 6 6 7 6 7 8 7 6 7 8 8 9 10 11 12 11 12 11 12 13 14 14 14 14 15 15 18 19 19 20 19 20 20 18 18 17 15 14 15 16 17 18
8 9 8 9 10 10 11 17 17 16 14 14 14 11 7 12 15 14 15 15 15 14 18 16 14 14 11 10 10 7 7 8 8 9 9 11 11 12 12 12 13 13 13 12 11 9 8 8 6 5 5 5 6 7 8 7 7 8 7 8 8 8 10 10 10 9 8 10 11 11 11 12 12 11 11 12 14 14 15 15 16 18 19 20 20 20 21 20 20 19 19 18 15 14 14 16 19
8 8 8 10 12 11 9 15 17 18 16 13 15 15 10 12 16 17 16 16 15 13 17 17 12 13 11 10 11 9 8 8 5 4 6 9 11 11 12 12 13 13 12 11 10 9 8 8 6 5 4 4 4 5 6 5 5 5 6 7 8 9 10 10 8 8 9 10 10 11 11 11 10 10 10 10 13 13 13 16 18 19 19 20 20 21 21 21 21 21 21 20 17 15 12 12 14
9 9 8 9 11 12 11 13 16 19 17 13 15 16 16 14 14 16 14 15 15 12 18 16 12 13 12 11 11 10 10 8 6 5 5 9 10 10 11 11 11 12 11 10 9 8 8 8 6 5 4 4 3 3 3 3 2 2 3 4 5 6 7 7 6 6 8 9 9 10 11 10 9 9 11 11 13 13 14 16 18 20 20 20 21 22 22 21 22 22 22 21 19 18 15 12 11
12 12 10 10 10 11 13 12 17 19 16 14 15 14 17 18 14 16 13 13 13 13 17 12 11 11 9 9 8 9 9 5 4 6 8 10 11 10 10 10 10 10 10 9 9 8 8 8 7 7 5 4 3 3 2 1 0 1 2 2 4 5 5 7 6 5 5 7 8 9 9 10 10 11 13 14 14 13 15 16 18 21 20 20 21 22 23 23 23 23 23 23 21 21 19 16 15
13 12 11 13 12 10 14 14 19 18 14 13 15 14 18 18 14 16 13 12 9 16 18 12 13 11 10 12 11 12 8 2 1 5 9 10 10 10 9 9 8 9 8 8 8 8 7 7 7 6 5 5 4 3 3 2 2 3 3 3 4 5 5 6 7 6 6 7 7 8 9 10 11 12 13 14 14 12 14 16 17 20 21 21 21 20 22 23 23 22 22 23 23 22 20 18 17
16 11 10 11 12 10 13 14 22 18 12 12 16 15 17 15 15 16 14 12 10 18 18 14 16 13 13 13 12 12 5 2 3 5 9 10 10 8 7 7 7 7 7 7 7 7 7 7 6 6 5 5 4 3 3 2 1 2 3 4 5 5 5 4 6 6 7 8 8 8 10 10 11 12 12 14 15 13 14 16 17 19 21 22 22 20 21 22 22 22 20 21 22 22 21 18 16
15 11 8 9 10 9 11 13 21 17 10 10 15 14 15 13 15 13 13 12 10 17 17 15 15 14 14 12 12 13 7 5 4 5 6 8 9 7 6 6 5 7 7 7 7 7 7 7 6 5 5 4 3 3 2 3 2 3 3 5 7 7 6 6 6 7 7 8 8 9 10 10 11 11 12 14 15 15 15 16 17 19 20 21 22 22 22 23 23 23 20 20 21 21 20 18 16
12 11 8 8 11 10 8 12 18 17 9 10 14 12 13 11 14 11 11 11 10 17 18 15 15 14 15 15 14 15 12 8 6 6 4 5 6 5 5 5 5 7 7 7 6 6 6 6 6 5 4 4 3 2 2 3 3 5 4 5 6 7 8 9 9 9 9 10 10 11 12 11 12 13 13 14 16 16 15 16 18 19 20 21 21 22 23 24 25 24 22 21 21 19 19 19 18
12 13 10 9 12 13 11 10 14 15 10 12 12 9 10 9 13 11 10 9 12 15 16 14 15 16 15 15 15 16 15 10 6 6 3 2 4 2 3 4 5 7 7 7 5 5 5 5 5 4 4 3 2 2 1 2 3 4 4 5 6 7 9 10 11 11 11 11 12 13 13 13 14 15 16 17 18 18 16 16 18 20 20 20 20 22 24 25 25 24 22 22 22 21 20 18 17
11 13 14 13 12 15 14 11 12 10 9 12 12 8 7 8 12 12 12 12 12 9 9 10 14 15 14 13 13 13 13 11 9 8 6 5 4 3 3 4 6 8 8 6 5 4 5 5 4 3 3 2 1 1 1 2 3 4 5 7 8 8 9 9 10 10 9 10 11 12 13 13 14 15 17 18 18 19 18 18 18 19 20 20 21 22 23 24 25 25 24 23 23 23 21 16 15
8 10 16 18 14 15 13 15 13 8 8 12 14 9 7 9 11 12 12 12 10 8 8 11 14 13 11 10 9 9 11 11 10 10 9 8 6 6 6 6 7 9 7 5 5 6 5 4 4 3 2 1 0 1 2 3 4 6 6 7 9 10 11 11 12 12 12 12 12 11 12 13 14 15 16 16 16 17 19 19 18 19 20 21 22 22 23 24 25 25 25 24 24 24 23 18 17
8 10 16 18 16 15 12 17 13 8 7 10 15 13 8 8 11 13 14 13 13 12 12 13 15 14 11 9 7 7 9 10 10 9 9 9 8 8 9 9 9 9 7 5 6 6 5 5 4 3 3 2 1 1 3 4 5 7 8 9 10 11 12 13 15 15 14 13 14 14 13 14 14 15 16 16 16 17 18 20 20 21 21 22 23 23 24 23 24 24 23 24 25 24 25 24 21
10 12 15 15 16 16 12 13 11 8 8 8 14 15 9 6 11 15 16 15 15 16 14 12 15 17 12 10 7 6 8 10 11 10 10 11 11 11 10 9 9 8 6 5 4 4 3 4 4 4 4 4 4 3 4 4 6 8 9 10 11 12 13 14 15 15 16 15 15 15 15 16 16 15 15 17 17 17 19 21 22 23 22 24 25 25 24 23 22 24 24 24 26 24 24 25 22
12 14 13 13 15 15 12 10 9 8 8 9 14 16 10 6 10 13 13 14 15 15 12 10 15 16 10 8 7 6 8 10 11 11 12 13 12 11 10 9 8 7 5 4 4 3 2 2 3 3 3 4 4 4 5 6 7 8 10 11 12 13 14 15 16 17 17 17 17 17 17 18 17 16 16 17 18 19 20 21 23 24 23 23 25 26 26 24 23 24 24 24 27 27 25 23 22
14 16 12 11 12 10 10 9 9 8 8 10 15 18 13 7 8 12 11 11 12 13 12 14 15 13 9 6 5 6 6 9 11 10 12 14 14 12 10 10 9 7 6 5 5 3 2 2 2 2 3 3 4 5 6 7 8 9 10 11 12 13 14 15 16 17 18 18 19 19 19 19 17 17 17 18 20 20 21 22 23 24 24 23 24 26 25 25 24 24 24 24 25 27 25 22 21
14 13 10 9 7 8 8 7 8 7 7 11 16 19 16 10 8 8 12 14 16 15 14 17 17 13 11 8 6 6 5 7 10 9 11 13 13 12 10 11 10 9 8 8 7 5 4 4 3 4 6 6 6 7 7 8 8 9 10 11 12 12 13 14 16 17 18 19 20 20 21 21 17 16 18 21 22 21 21 23 23 23 25 24 24 25 25 25 24 23 24 24 24 26 25 22 22
13 12 10 9 8 7 8 7 8 7 8 13 16 16 14 10 6 4 11 16 11 11 12 16 18 15 14 12 9 8 6 8 9 8 9 10 10 10 9 9 9 9 9 9 8 8 8 8 7 7 8 8 8 9 10 10 10 11 11 12 13 13 13 14 15 17 18 18 20 20 21 21 19 17 18 20 21 22 22 23 22 23 24 24 24 25 24 25 24 23 24 25 25 26 25 24 24
13 12 9 10 9 8 7 7 7 8 9 13 16 14 10 8 3 10 4 11 13 15 12 12 16 15 14 13 12 11 9 9 9 8 9 8 9 9 9 9 9 9 9 9 8 8 8 9 9 8 8 8 9 10 10 11 12 13 13 14 15 15 15 15 16 17 19 19 20 21 22 22 20 20 20 19 20 22 24 25 25 24 24 22 22 22 22 23 23 22 24 25 25 25 25 24 24
12 12 11 10 9 8 7 7 7 8 9 11 13 9 3 6 5 10 13 18 17 16 14 13 15 14 13 12 12 11 10 9 9 9 9 9 9 10 9 9 9 9 9 8 8 8 8 8 8 8 9 9 9 10 11 12 12 13 14 15 15 16 16 17 17 18 19 20 22 23 23 22 21 21 20 21 22 22 24 27 25 24 23 20 19 20 20 21 21 21 22 23 23 23 23 24 24
10 11 11 10 10 8 5 6 7 5 6 8 6 1 3 6 7 9 13 19 18 18 16 15 15 14 12 11 10 10 9 9 9 9 10 9 10 10 9 9 9 9 8 8 7 7 7 7 8 8 9 10 11 12 13 13 13 14 15 15 16 17 17 17 18 19 19 21 23 23 22 22 22 21 20 23 24 22 23 25 22 21 22 20 20 20 20 20 20 20 21 21 22 22 22 23 24
8 10 12 10 11 10 4 6 7 3 4 7 4 5 4 6 6 5 11 18 18 17 16 14 14 14 12 10 10 9 9 8 9 9 9 9 10 10 9 9 9 8 8 8 8 8 8 8 9 9 10 11 12 13 13 14 14 15 15 15 16 18 18 18 20 21 21 22 22 21 22 23 23 22 21 23 25 23 22 23 20 18 20 21 21 20 19 18 18 19 20 20 21 21 20 19 20
9 9 12 11 12 11 5 5 7 5 6 7 6 10 8 5 3 3 8 14 16 16 15 14 13 13 12 11 10 10 9 9 10 9 9 9 9 10 9 9 9 8 8 8 8 8 8 9 10 10 11 11 12 13 13 13 14 14 14 15 16 18 18 19 20 21 21 21 21 21 22 24 24 24 23 23 23 21 20 21 22 19 20 20 19 19 18 15 15 17 19 19 20 21 19 17 17
14 10 11 10 8 9 6 4 6 7 7 7 7 13 10 7 7 10 13 14 15 16 15 13 13 12 12 11 11 11 9 8 9 8 8 8 9 9 9 8 8 8 8 8 8 9 9 10 10 10 10 10 12 13 13 13 13 13 14 15 16 16 17 19 19 20 21 20 19 19 21 23 24 24 24 22 21 19 17 19 22 22 20 18 16 16 15 13 13 15 17 17 17 17 17 16 15
16 12 11 9 6 7 7 5 6 7 7 7 7 9 7 7 10 15 17 17 18 17 14 13 13 12 11 10 10 9 8 7 8 8 7 8 9 9 8 7 8 8 9 9 9 10 10 10 10 10 10 11 12 13 13 13 13 13 14 15 16 16 17 18 19 20 21 20 19 18 20 22 23 22 21 21 20 18 15 16 20 22 22 20 16 13 12 13 12 13 15 15 12 12 13 14 15
13 12 11 10 7 7 8 7 7 8 7 6 6 6 4 2 8 17 19 18 18 18 14 12 12 13 11 10 8 7 7 7 8 8 7 8 8 8 7 8 8 9 9 9 8 9 10 10 10 10 11 12 12 13 13 14 14 15 16 17 17 17 17 18 19 20 19 19 19 19 20 22 22 21 20 20 19 16 15 15 17 20 20 17 14 12 12 13 13 12 13 12 10 11 12 12 14
13 11 10 11 10 9 8 9 9 9 7 6 7 5 3 5 1 11 18 18 17 18 16 13 13 13 11 9 8 8 8 8 7 7 7 8 8 8 8 9 9 9 8 8 9 9 10 10 10 10 11 12 13 13 14 15 16 17 18 18 17 17 18 18 19 19 18 18 19 20 20 22 22 21 19 19 17 14 13 13 13 15 14 11 10 11 12 14 14 13 11 10 10 11 12 13 13
Wind_Direction
303 319 312 296 282 280 274 247 255 239 231 255 260 267 263 258 261 270 270 162 289 78 75 32 19 358 341 79 93 72 51 47 39 49 96 119 123 117 113 114 117 117 120 125 137 144 152 161 164 166 166 166 164 161 160 160 161 160 156 148 139 133 130 126 125 125 126 128 128 127 122 116 116 116 111 105 104 104 106 107 107 107 107 106 103 100 97 97 99 98 98 94 86 81 80 87 103
280 295 284 271 264 268 269 225 249 262 249 257 260 261 263 258 247 261 281 281 9 86 69 27 69 16 346 98 97 76 60 63 77 86 100 118 120 118 117 117 119 120 124 130 139 144 151 161 165 167 166 166 164 163 163 163 164 162 158 149 142 136 132 129 128 129 130 131 132 129 124 121 121 120 117 111 110 109 109 109 108 107 106 104 102 99 95 95 98 99 97 91 82 79 79 81 98
263 272 265 254 247 244 268 256 246 261 262 262 265 259 261 266 246 227 280 343 68 81 73 30 68 56 130 96 81 80 88 83 91 98 111 122 124 127 124 119 121 124 128 136 145 147 154 163 165 166 167 166 164 164 165 166 166 163 158 149 144 138 135 132 131 132 132 133 133 129 126 127 126 122 123 120 117 115 113 112 111 110 107 104 102 99 96 94 95 94 91 88 85 83 82 80 94
252 258 263 258 245 229 243 251 244 251 259 263 271 271 278 293 310 77 49 54 62 57 84 103 157 67 58 78 83 86 90 84 99 112 117 126 131 129 125 123 123 126 135 143 147 148 158 166 165 165 166 166 165 165 166 167 166 162 155 150 146 139 137 134 132 133 132 132 131 130 130 131 128 127 127 124 122 119 117 116 115 114 111 109 106 104 101 98 95 94 89 86 88 88 85 81 94
248 255 259 256 257 248 243 241 244 242 247 257 260 271 290 319 359 71 59 32 45 31 109 215 157 78 60 59 77 86 91 99 102 111 113 123 132 127 126 128 127 134 145 146 147 151 161 167 165 165 166 166 165 166 166 166 165 160 154 152 146 140 139 135 133 133 131 132 133 133 134 133 132 131 128 127 126 123 121 119 119 117 114 112 108 106 101 96 96 95 92 86 87 88 86 85 91
250 256 245 239 268 295 268 244 241 242 242 251 259 272 276 310 46 70 74 69 59 44 219 220 107 89 79 61 64 57 75 123 113 113 119 128 135 130 132 133 134 144 148 145 150 157 165 168 166 166 167 165 165 166 165 165 161 156 155 151 143 140 141 138 135 133 133 135 136 136 135 136 136 133 128 130 130 127 125 124 123 120 117 114 108 106 99 91 93 94 97 93 85 87 90 94 96
247 253 228 222 255 270 254 248 245 251 246 246 248 258 267 258 89 56 79 127 135 165 207 207 118 99 93 91 79 46 50 100 118 117 125 133 135 133 136 137 142 148 146 145 148 157 168 168 165 167 165 165 165 164 165 162 154 152 155 145 141 144 144 142 138 138 139 139 140 140 139 138 137 132 128 130 132 131 130 129 129 126 121 114 108 107 101 95 95 95 97 92 86 92 96 101 106
244 253 241 226 233 228 231 248 246 252 253 253 248 246 282 23 85 246 257 190 177 173 184 220 151 101 84 87 86 65 63 84 105 116 126 132 135 136 139 140 146 146 145 145 147 158 170 168 165 166 164 166 165 163 163 155 147 150 150 140 141 146 147 145 141 143 144 143 145 144 145 143 141 135 130 129 130 131 131 133 133 131 123 113 112 110 107 102 95 92 88 81 87 96 100 108 115
235 239 247 244 241 240 232 242 241 244 248 256 260 260 303 60 81 272 287 284 212 195 175 198 212 112 97 93 92 91 82 91 108 120 128 132 138 140 142 144 148 147 143 145 153 162 166 165 163 163 161 162 160 156 154 147 146 147 146 140 143 150 151 149 146 150 147 145 147 148 149 147 146 141 134 131 130 130 131 135 136 130 121 118 118 114 112 106 95 89 84 77 85 96 104 117 123
225 226 236 246 239 251 244 243 242 241 240 246 250 248 243 191 216 268 277 268 218 229 175 179 203 124 112 103 99 101 104 113 116 122 129 133 140 142 146 146 149 146 141 150 157 156 154 160 160 158 155 151 147 145 144 142 145 146 145 143 145 148 149 150 151 154 150 146 149 152 152 150 149 145 141 138 137 137 136 140 140 127 120 126 123 116 114 108 97 89 82 75 83 97 109 123 127
226 215 231 252 240 246 246 248 246 241 235 239 235 175 67 189 236 247 247 247 206 225 192 172 160 118 108 100 99 112 118 124 122 126 131 135 140 143 147 145 149 146 141 149 150 144 146 152 149 149 147 141 140 140 143 143 146 147 143 142 140 137 136 143 152 155 152 147 150 155 156 153 152 147 148 148 148 150 147 148 143 130 127 129 122 117 114 107 98 87 79 77 87 101 113 127 131
239 220 213 239 245 245 246 253 250 253 237 222 225 151 147 208 239 230 219 238 199 203 202 173 144 119 110 104 101 123 127 131 129 132 134 136 141 143 145 143 146 145 142 143 138 137 138 140 138 139 139 140 141 139 144 145 148 146 139 139 136 134 132 136 147 156 156 150 153 162 160 155 155 156 157 157 158 162 161 161 151 141 138 131 121 118 111 105 98 86 80 81 92 105 118 131 134
241 237 221 228 243 254 256 257 252 266 259 190 215 184 163 193 226 218 222 234 191 201 195 142 117 110 105 108 114 134 132 134 133 136 138 138 143 143 143 143 144 143 142 139 132 129 129 131 131 133 140 142 142 142 144 142 143 140 141 143 142 144 143 136 139 151 158 160 163 166 165 160 161 166 168 169 172 176 179 181 177 158 146 134 124 122 112 105 101 92 83 84 95 107 120 133 138
238 245 247 247 242 252 256 261 260 263 271 233 195 128 125 173 220 218 226 223 191 216 176 108 99 105 102 115 130 144 134 139 138 138 140 138 142 142 142 143 144 144 140 135 128 125 124 126 129 133 139 134 130 133 138 143 144 142 148 153 152 152 149 146 143 147 158 167 175 174 171 169 170 175 178 182 185 192 196 195 193 172 153 140 132 129 119 110 110 104 88 86 98 107 119 131 137
238 247 253 263 258 254 248 252 265 270 259 233 138 120 143 197 225 225 224 220 184 197 108 88 83 109 132 150 146 150 140 140 140 139 138 135 140 141 141 144 146 146 142 136 127 121 121 126 131 130 128 124 118 118 131 151 158 156 159 162 160 158 155 157 158 160 162 166 177 182 184 184 183 184 189 195 198 204 206 204 200 180 163 153 145 138 130 121 119 118 104 90 98 108 118 124 126
237 256 252 253 258 255 248 246 249 266 271 98 122 149 188 202 217 231 231 233 117 66 58 65 52 84 142 151 133 141 140 138 141 139 134 134 139 140 142 146 147 147 138 125 118 122 132 137 133 127 129 129 128 134 146 160 169 168 165 164 164 166 166 167 168 172 171 166 172 182 190 193 193 196 201 204 206 212 211 211 208 188 175 167 158 150 145 137 132 131 122 102 102 109 115 121 122
232 248 257 247 247 246 250 247 225 244 198 96 144 175 199 205 190 221 233 229 89 72 68 68 56 66 78 99 117 130 135 137 141 140 137 138 143 142 144 150 149 136 102 92 111 140 146 138 131 132 140 142 145 152 156 163 172 172 168 167 169 174 177 177 177 179 176 171 172 177 183 183 190 203 202 203 213 215 208 210 209 196 186 178 169 162 159 152 145 143 137 122 113 111 116 124 122
233 226 245 241 237 237 246 249 235 257 143 94 232 173 199 196 169 209 219 175 109 87 85 84 73 73 79 95 113 124 132 138 146 149 145 146 150 148 153 158 138 105 89 95 128 155 145 131 135 145 151 155 157 157 157 167 172 166 166 168 173 181 183 185 181 177 175 176 178 172 165 165 182 195 188 198 220 223 214 212 211 204 196 188 179 173 172 167 158 155 152 139 128 120 120 126 122
234 226 231 239 241 240 246 283 18 5 71 73 11 193 219 184 164 193 196 184 140 104 99 102 93 94 99 108 117 127 137 146 155 156 153 156 157 156 161 144 105 98 112 129 145 151 141 134 146 155 159 162 159 155 160 172 168 158 160 163 171 183 185 187 179 170 174 184 191 175 167 182 199 202 198 203 209 220 223 217 217 212 208 199 187 183 182 178 173 168 164 154 144 134 125 126 121
226 230 233 236 242 252 254 59 44 23 34 56 148 213 235 174 166 178 191 207 165 124 124 119 109 111 116 122 128 136 144 153 161 162 164 162 156 159 143 106 100 122 141 144 140 143 148 147 151 159 165 166 160 157 163 170 162 156 162 165 170 180 182 184 178 176 184 192 200 188 184 199 205 203 204 206 201 209 221 220 222 218 215 210 197 194 192 189 190 184 179 171 161 153 146 151 149
215 221 240 237 241 276 293 79 82 25 359 338 31 206 230 179 149 173 196 207 185 154 143 129 124 125 127 136 141 145 150 157 163 164 167 157 151 140 104 103 127 142 136 133 136 142 152 153 154 160 164 167 164 162 167 169 167 165 166 167 174 183 184 186 186 187 190 192 201 203 201 207 208 202 197 200 204 207 213 221 227 222 219 215 207 204 201 201 202 199 194 185 178 175 170 186 203
223 224 239 249 270 307 302 236 193 122 273 302 308 223 229 205 119 202 211 195 98 123 125 121 128 137 140 145 148 154 157 161 165 164 160 146 135 110 98 117 139 133 125 130 136 142 150 154 157 161 163 166 169 171 173 173 175 176 171 170 177 188 191 191 194 197 196 193 200 211 215 218 218 212 200 194 196 203 216 227 232 229 224 219 214 211 211 214 212 209 209 201 194 193 193 205 211
233 233 236 251 274 289 285 223 143 96 257 255 262 333 346 200 181 239 225 113 86 96 113 119 130 138 138 144 152 158 160 164 170 156 146 128 109 101 107 123 127 125 129 135 140 146 152 156 158 160 163 167 174 178 176 177 180 181 178 177 181 192 201 201 200 205 207 204 207 215 224 229 226 224 211 194 192 198 209 213 216 225 226 227 221 211 211 221 220 215 216 216 208 208 224 226 216
232 243 243 246 247 260 286 63 117 177 242 251 265 353 284 220 205 214 198 111 106 107 117 124 129 133 133 145 152 157 162 162 155 126 125 115 104 108 118 124 128 131 131 135 145 151 152 156 159 161 168 174 180 179 177 180 182 185 186 184 185 193 206 209 206 215 220 217 220 223 235 243 235 234 229 213 207 204 207 208 204 205 213 226 231 215 208 218 220 216 216 222 222 222 232 223 213
228 244 256 255 233 231 243 210 147 213 222 245 256 235 225 228 230 200 177 123 113 111 118 123 126 132 134 146 149 155 158 147 126 109 112 111 110 114 118 124 132 132 130 137 145 149 151 155 160 164 171 179 183 179 176 179 181 187 189 188 193 196 202 209 207 227 239 242 239 231 233 244 240 236 234 231 225 218 218 220 213 205 206 213 229 223 215 218 217 218 218 218 224 230 234 218 207
219 230 245 257 250 231 232 220 216 228 211 218 227 225 220 216 248 213 168 136 121 116 119 122 127 132 134 146 148 151 150 141 125 114 116 116 114 117 120 124 126 127 132 141 146 150 156 157 161 166 170 179 186 180 171 174 181 191 192 191 197 194 187 198 209 228 237 244 246 234 221 226 232 231 233 238 237 232 227 224 221 216 212 206 218 226 223 223 216 218 222 214 219 231 236 219 200
225 226 234 242 252 242 236 229 221 230 224 220 216 221 218 182 212 213 155 145 139 131 126 124 129 128 134 148 143 147 145 138 133 126 121 118 114 115 122 126 125 131 136 142 146 151 158 157 158 167 171 176 183 181 173 178 187 194 197 194 194 186 188 199 207 224 229 229 239 233 215 214 226 231 235 241 241 241 236 228 224 222 219 207 213 225 228 231 221 217 224 217 217 226 233 219 200
240 236 243 238 242 241 228 224 221 224 220 218 215 217 210 167 218 219 147 147 152 144 134 125 128 129 136 143 139 147 143 140 140 136 127 120 117 114 120 128 133 136 139 144 145 150 157 155 158 168 172 173 177 181 179 188 195 193 196 195 188 187 199 207 205 219 225 224 239 239 227 224 230 234 234 236 241 247 245 235 226 225 224 211 212 222 227 235 225 218 226 222 217 220 223 217 206
239 224 247 239 234 239 227 214 214 219 204 201 216 221 202 179 223 221 146 153 160 144 133 122 127 134 136 140 147 150 144 149 145 136 129 120 119 117 117 126 135 137 139 145 146 150 152 153 161 165 171 174 175 181 182 186 190 188 193 197 201 205 214 219 215 228 232 228 246 253 251 245 240 239 235 233 235 241 240 232 225 227 228 218 214 216 224 231 217 215 227 224 221 224 223 223 218
243 229 243 244 230 229 222 213 213 215 193 188 211 225 198 180 220 219 154 161 170 138 126 126 132 138 140 146 152 149 147 151 139 127 120 113 114 115 116 124 131 132 133 139 141 143 148 158 167 165 171 179 180 188 187 185 187 187 199 213 221 220 206 203 201 212 233 240 245 247 247 243 239 238 233 224 221 223 224 226 227 229 230 225 221 219 226 230 214 212 223 224 226 230 231 230 222
236 234 231 235 240 220 204 207 213 212 199 194 204 227 198 180 216 213 152 164 180 142 131 137 141 146 153 151 142 141 141 126 115 115 112 113 117 116 117 120 122 125 126 126 126 127 137 150 159 160 167 175 181 192 193 193 192 185 205 225 233 237 207 192 194 201 224 233 233 237 240 237 230 224 223 220 217 217 215 218 224 228 231 230 227 225 228 231 221 215 220 225 225 227 234 234 224
222 229 224 220 237 230 197 193 206 210 205 193 197 233 205 183 207 187 142 169 186 156 143 144 148 148 149 143 131 127 125 109 103 108 113 120 126 125 125 121 114 116 118 117 117 117 122 126 128 142 150 166 177 185 190 199 206 194 207 228 235 248 231 213 214 216 217 217 226 240 244 243 237 226 226 229 227 223 218 219 224 227 232 231 229 229 228 229 224 220 220 223 227 225 229 236 235
212 217 228 218 219 241 204 180 196 210 207 188 194 236 216 185 197 166 152 179 193 175 149 146 152 145 147 144 132 132 130 120 107 108 121 129 132 130 128 123 115 114 115 117 119 122 124 122 123 132 138 157 168 176 184 192 209 203 205 217 212 202 206 212 215 218 212 208 218 231 238 246 248 241 235 230 229 229 226 227 227 229 231 229 229 229 228 226 225 227 224 221 227 230 231 235 236
211 206 226 230 215 237 215 169 185 208 209 189 197 232 235 198 184 164 167 185 198 181 144 150 158 142 151 150 139 146 133 121 131 147 137 129 131 129 124 121 117 116 118 119 120 125 128 123 121 125 121 123 130 151 165 168 189 193 194 205 201 195 205 212 211 216 215 213 217 221 227 236 239 234 230 227 226 230 233 233 230 227 227 227 227 227 228 229 227 231 230 226 225 228 237 237 231
210 201 214 235 220 229 223 171 175 202 205 196 203 224 242 228 180 160 172 192 202 168 141 154 155 145 154 147 140 143 128 128 157 176 146 123 122 121 118 117 115 116 119 120 121 123 124 121 118 117 112 108 108 120 133 145 176 201 209 207 213 216 216 214 215 218 216 221 225 216 213 220 223 219 217 217 221 223 224 227 229 226 224 228 231 228 229 232 232 232 232 232 228 229 237 239 244
212 204 208 227 223 225 228 186 168 192 200 205 214 214 237 239 188 161 172 205 209 149 139 147 137 141 140 116 99 90 91 108 147 155 142 128 122 118 114 112 110 112 116 118 122 122 122 122 117 111 110 104 94 82 84 86 327 280 258 256 252 242 233 224 227 234 227 232 231 214 207 217 224 221 213 211 218 222 217 218 224 225 225 231 235 232 230 232 233 232 233 235 232 235 240 240 248
230 213 208 224 229 222 227 193 162 185 201 207 222 217 230 231 179 164 174 207 200 130 134 148 140 135 104 89 79 71 66 5 251 142 126 118 113 110 109 110 108 108 114 116 118 121 121 121 114 106 104 97 83 62 50 47 357 334 316 301 288 271 260 238 233 244 237 232 231 218 212 219 227 227 217 215 223 224 217 218 220 222 223 228 234 234 233 232 232 234 235 237 236 236 240 240 243
247 233 210 220 232 224 227 188 156 179 206 205 220 226 232 214 165 168 179 193 172 129 138 155 152 138 104 101 103 101 108 251 220 118 99 105 107 103 103 111 114 113 116 117 117 118 116 114 108 99 94 85 73 66 51 39 4 336 321 311 316 305 287 264 252 258 247 239 237 222 216 222 229 233 229 225 229 229 224 223 223 223 222 226 232 234 233 230 230 233 234 236 236 236 237 235 234
250 251 226 216 229 224 227 194 162 175 201 203 211 228 238 200 160 172 188 196 168 137 146 154 150 136 116 122 122 119 140 223 201 128 97 109 114 116 122 122 117 113 116 119 117 116 118 115 106 95 90 83 65 70 51 22 7 333 316 305 309 304 294 284 267 265 258 253 248 231 227 228 227 234 237 228 229 234 234 231 227 225 223 226 231 231 232 229 227 228 229 232 233 233 234 230 227
243 252 241 222 221 211 221 206 174 166 185 210 202 219 243 192 158 172 183 198 178 149 157 160 152 141 133 139 137 135 155 205 199 140 112 113 117 125 134 126 115 114 115 116 115 116 116 109 99 95 91 84 63 56 26 5 347 324 316 302 300 293 285 278 269 268 262 255 250 241 238 234 229 229 229 226 230 234 235 236 234 229 227 228 229 230 230 228 227 226 224 227 229 228 230 229 228
233 241 243 236 216 209 223 211 173 156 181 222 205 208 241 188 162 169 162 192 196 169 170 166 148 143 139 138 141 142 153 178 180 134 114 128 128 127 120 118 118 111 101 101 110 113 109 103 100 98 93 88 68 51 359 335 328 319 311 296 289 274 266 262 258 261 261 255 250 247 244 240 235 232 230 234 241 239 234 237 238 234 232 231 228 230 230 227 226 224 219 221 226 227 225 222 223
228 231 239 247 225 216 220 189 166 164 186 219 216 207 224 185 170 178 172 187 192 168 161 146 128 138 139 128 135 136 133 145 152 143 144 147 149 161 142 136 131 108 90 90 95 94 96 102 105 94 90 97 69 30 321 306 306 302 299 297 294 285 279 271 265 270 274 269 263 258 253 246 242 240 238 242 248 246 237 235 239 237 233 231 229 228 229 228 225 223 220 220 225 229 225 215 213
227 217 232 250 247 233 211 164 166 197 189 208 221 216 208 183 173 185 182 172 167 150 146 132 119 130 130 113 122 128 121 127 134 139 143 145 152 154 139 131 120 97 81 77 64 60 66 72 81 83 83 97 61 297 289 294 294 291 293 294 293 294 295 295 298 302 297 287 281 273 263 255 248 243 243 243 245 246 239 234 238 241 237 234 232 229 230 228 225 225 221 217 219 225 224 217 213
227 209 223 241 250 246 204 159 168 208 190 203 223 226 225 192 172 186 183 169 178 182 181 169 141 129 121 109 103 109 124 127 123 126 129 128 126 116 110 105 98 85 72 64 47 41 43 38 42 54 41 20 9 308 292 291 291 296 300 297 291 289 291 295 300 302 299 292 287 280 271 266 257 248 246 244 241 241 241 239 238 242 243 239 235 235 234 229 226 226 223 216 216 221 223 221 218
227 213 215 226 241 252 229 179 174 194 195 209 221 224 233 206 180 193 189 182 195 193 186 176 143 128 124 125 121 115 131 129 118 118 114 109 101 93 97 99 95 89 79 74 63 45 32 24 27 31 14 7 8 343 323 313 305 308 307 304 302 302 303 303 303 302 300 297 291 286 278 271 264 256 251 250 249 245 244 246 243 243 246 243 239 240 240 234 228 228 224 217 214 216 220 222 220
229 227 215 217 231 249 255 226 189 182 202 217 216 214 226 224 182 186 191 189 197 190 165 126 111 117 117 116 121 118 122 121 115 112 106 103 99 95 104 107 102 101 96 97 98 84 65 48 31 26 14 5 360 348 340 333 325 322 316 312 312 314 315 314 312 308 305 302 298 292 285 276 269 265 261 257 255 250 246 248 246 244 244 243 243 244 244 240 233 230 228 221 218 218 217 216 215
222 239 220 209 225 239 263 252 206 194 209 219 221 212 212 235 203 186 188 183 183 179 149 114 108 118 117 100 99 107 113 114 113 109 103 100 96 91 95 96 92 92 92 89 84 75 73 64 32 32 41 13 355 351 344 334 328 323 318 313 311 312 314 314 313 312 310 308 304 300 295 288 279 274 271 266 261 256 251 248 247 247 245 242 243 245 245 241 234 231 231 227 220 217 214 211 211
209 239 221 198 209 225 252 245 202 202 210 217 225 213 201 220 233 195 175 176 182 178 149 126 127 135 137 137 136 136 121 102 103 101 101 100 96 91 88 84 78 73 70 63 54 43 36 38 21 35 49 31 5 356 346 339 333 324 316 310 307 307 308 307 305 305 306 305 304 304 303 299 293 285 279 275 272 270 266 258 250 249 248 246 245 245 244 242 237 233 233 230 222 215 212 210 209
204 229 225 206 195 203 236 230 198 205 215 214 218 216 204 204 271 276 181 178 169 142 120 120 128 128 127 129 125 121 105 97 104 104 102 99 94 92 88 84 76 66 61 54 47 37 30 31 23 24 38 28 8 357 350 345 339 332 326 321 319 318 314 309 306 305 305 305 305 306 307 306 305 300 291 284 280 281 283 275 264 257 253 250 248 247 246 245 240 235 231 227 222 217 212 211 212
207 218 221 213 198 191 216 220 202 206 217 216 211 217 210 174 354 348 116 123 95 98 105 118 121 110 107 110 107 107 105 108 112 107 103 98 94 92 87 83 78 70 62 53 47 39 33 34 25 16 21 19 7 357 351 345 339 336 333 330 329 328 325 323 319 315 313 313 313 312 311 311 311 306 298 292 288 286 284 281 274 264 257 254 252 249 245 242 239 233 229 225 222 220 216 215 216
209 215 219 217 207 198 208 216 212 207 216 227 218 222 218 143 72 30 80 96 98 112 116 114 111 103 103 104 105 107 105 108 108 103 101 98 96 93 85 78 72 69 65 56 49 40 34 33 22 14 12 10 5 357 351 346 341 339 336 333 331 329 327 325 320 316 315 316 316 315 314 313 310 305 297 296 297 291 281 280 277 267 262 260 253 247 242 238 233 228 226 223 219 216 214 215 215
207 215 219 215 210 206 198 211 225 217 217 231 224 211 47 100 85 60 88 99 103 111 112 113 112 109 109 107 107 106 104 109 109 103 101 97 92 87 81 74 65 62 60 56 52 40 34 29 17 12 9 5 2 358 354 351 346 342 339 336 334 333 331 328 323 320 319 320 322 321 320 317 312 306 300 301 302 294 282 281 281 274 269 261 248 245 243 235 229 225 222 220 217 212 211 215 213
194 212 219 207 209 217 194 194 218 239 227 217 159 96 91 110 89 69 100 105 108 113 116 120 117 112 110 108 107 105 108 113 106 102 101 97 93 88 81 76 68 63 55 50 48 37 31 27 15 11 11 6 2 359 355 352 348 343 340 338 336 335 333 330 328 327 327 328 330 330 327 322 315 309 305 305 303 296 288 284 281 275 266 257 249 246 240 230 225 220 217 219 216 210 209 210 205
192 206 219 203 204 221 215 191 204 209 226 225 155 134 149 150 128 153 137 123 125 129 124 121 119 116 113 111 111 111 115 113 104 103 100 93 90 84 79 75 68 61 54 48 44 36 31 28 20 15 13 7 2 359 355 352 350 346 343 341 337 335 333 331 330 331 332 335 337 335 333 331 325 319 314 308 300 296 295 290 285 278 268 263 259 248 235 228 226 219 218 220 210 199 198 198 196
215 207 214 211 205 215 215 202 205 200 215 231 172 146 162 178 154 165 168 153 144 138 130 126 124 121 117 115 118 119 119 115 108 106 100 92 85 76 73 70 64 57 51 47 40 34 31 27 22 16 11 7 5 1 356 354 353 348 343 341 337 334 333 333 333 333 336 340 341 337 337 338 336 333 326 318 306 300 301 294 289 286 276 268 261 248 234 225 225 223 223 221 205 191 191 191 192
219 210 204 215 223 217 214 212 210 207 213 221 180 151 179 190 160 169 174 162 152 143 137 136 129 123 122 121 124 126 126 123 117 110 101 94 87 81 75 69 64 55 47 44 37 32 29 23 19 15 12 10 9 5 359 357 355 351 348 344 341 338 336 336 336 337 338 341 343 341 340 339 339 339 335 328 320 311 307 297 292 292 282 268 255 243 232 222 220 220 219 215 201 189 186 184 188
209 211 197 201 218 223 223 217 211 214 214 212 197 178 177 138 159 174 168 157 155 147 138 139 132 125 125 126 129 129 125 120 112 106 101 97 93 89 80 70 62 53 47 47 42 36 30 23 19 17 15 12 10 7 3 360 359 357 353 349 346 342 339 338 339 340 341 344 347 347 345 343 342 341 337 334 331 323 314 309 306 301 287 266 247 233 227 223 216 213 216 208 193 186 182 181 188
198 210 208 204 208 215 223 216 210 217 217 215 218 194 105 37 159 177 161 150 150 143 136 134 131 126 124 125 127 123 118 113 107 106 104 100 95 88 81 73 65 57 51 49 47 40 32 27 23 21 20 17 14 11 6 5 5 1 356 353 351 345 341 342 345 347 347 348 351 352 350 349 348 344 342 342 345 342 329 321 317 305 284 253 234 227 220 219 215 207 203 196 188 181 177 186 194
Height
771 771 769 770 768 769 767 766 782 776 774 786 772 765 752 731 726 723 722 720 724 720 715 721 720 723 729 741 750 753 757 761 767 773 784 777 766 771 769 769 771 773 777 779 782 783 783 784 784 785 786 787 789 789 790 791 791 792 793 794 795 796 797 798 799 800 801 801 802 803 805 805 806 807 808 809 809 810 811 812 813 813 814 814 815 815 815 815 816 816 816 817 817 816 817 817 817
771 771 769 771 768 772 769 763 786 783 778 786 767 757 742 723 725 726 724 722 724 720 716 718 721 725 726 732 739 749 761 759 758 763 768 766 767 771 770 771 772 774 777 779 783 784 785 785 785 786 787 788 789 790 791 791 792 793 794 795 796 797 798 799 800 801 802 803 804 805 806 807 808 808 809 810 811 811 812 813 814 815 815 816 816 816 816 816 816 817 817 817 817 817 817 817 817
771 771 769 771 767 768 768 766 785 788 785 785 766 745 730 725 723 723 722 719 720 716 718 721 725 727 727 738 743 754 767 758 754 758 762 765 768 770 772 773 773 776 777 781 784 784 785 785 785 786 787 789 789 790 791 792 793 794 795 796 798 799 800 801 802 803 803 804 805 806 808 809 810 810 811 811 812 813 813 814 815 816 816 817 817 817 818 817 817 818 817 817 818 818 818 818 818
770 770 769 768 768 769 772 777 781 784 787 781 767 742 726 725 718 720 721 719 719 717 722 725 730 727 731 749 749 754 764 758 755 758 763 766 768 770 772 773 775 777 779 782 783 784 785 785 786 787 788 789 790 791 792 794 795 796 797 798 799 800 801 802 804 804 805 806 807 808 809 811 811 812 812 813 814 814 815 816 816 817 817 818 818 818 819 818 818 818 818 818 818 818 818 818 818
769 770 768 766 772 771 771 777 774 778 781 770 764 743 727 724 719 724 723 721 719 720 724 725 734 731 735 748 748 759 764 759 756 756 762 767 768 770 772 774 776 778 780 782 782 785 785 786 787 788 789 790 792 793 794 796 796 798 799 800 801 802 803 804 806 806 808 809 809 810 811 812 813 814 814 814 815 815 817 817 817 818 818 819 819 819 819 819 819 819 819 819 819 818 818 818 819
769 768 766 765 767 764 771 779 775 774 764 754 755 740 726 721 723 727 725 724 720 721 723 725 734 738 749 750 747 755 755 757 760 757 761 767 769 770 773 775 776 778 780 781 782 784 786 787 788 789 791 792 794 795 796 798 799 800 801 802 803 804 806 806 808 809 810 811 811 812 813 814 814 815 816 816 816 817 818 818 819 819 820 820 820 821 820 820 820 820 819 819 819 819 818 819 819
769 768 765 768 768 765 780 783 774 770 752 741 744 736 724 718 723 729 728 730 727 725 723 725 728 741 758 753 752 754 749 754 757 759 763 767 770 771 773 775 776 778 779 781 783 785 787 788 789 791 792 794 796 798 799 801 802 803 804 805 806 806 808 809 810 811 812 813 813 814 815 816 816 817 818 818 818 818 819 819 820 820 821 821 821 822 821 821 821 820 820 820 820 819 819 819 820
767 768 763 771 776 771 780 779 769 764 748 734 729 726 722 719 725 732 732 733 733 730 727 727 722 746 761 751 762 760 752 757 758 763 765 767 770 771 774 775 777 778 780 782 783 785 788 789 792 793 795 798 799 801 802 803 805 805 807 807 808 809 810 811 812 813 814 815 815 816 817 817 818 819 819 820 820 820 820 821 821 822 822 823 823 823 822 822 822 821 821 821 820 820 820 820 821
764 767 765 771 777 773 774 773 765 756 745 735 724 719 721 723 728 732 734 732 731 729 730 728 724 749 763 757 768 761 756 762 762 765 766 769 771 772 774 775 777 778 781 782 784 786 789 792 794 796 798 801 802 804 805 806 808 808 810 810 811 812 813 814 814 815 816 817 817 818 819 819 820 820 821 821 822 823 823 822 823 824 824 824 824 824 824 823 823 823 822 822 821 821 821 821 822
763 765 767 772 775 777 774 767 759 749 739 731 723 717 719 723 729 732 736 734 729 729 728 724 726 747 759 763 769 761 761 764 764 768 768 770 771 772 775 775 778 778 781 782 785 788 791 795 797 800 802 804 806 807 808 809 810 811 812 813 814 814 815 816 816 817 818 819 819 820 821 821 822 822 823 823 824 825 825 825 824 825 825 826 825 825 825 824 825 824 824 823 823 822 822 823 823
767 763 764 774 777 779 774 764 753 742 731 725 718 715 719 723 729 732 733 734 728 731 727 723 734 745 756 765 767 762 762 764 766 769 769 771 772 773 775 776 779 780 783 784 788 790 794 798 800 803 804 807 808 809 811 812 813 814 815 815 816 816 817 817 818 820 820 822 822 822 823 823 824 824 824 824 825 826 826 826 826 827 827 827 827 826 826 826 826 825 825 825 824 824 824 824 824
770 765 764 778 779 772 765 759 749 736 725 722 720 715 719 725 731 733 735 735 728 732 728 726 734 739 756 767 765 762 762 766 767 769 770 772 772 774 775 777 780 782 785 787 790 793 797 801 803 806 808 810 811 812 813 814 816 816 817 817 818 818 819 819 820 821 822 823 823 824 824 825 825 825 826 826 826 827 827 827 827 828 828 828 828 828 828 827 827 827 827 826 826 825 825 825 825
768 764 765 775 769 764 759 753 744 736 728 721 722 717 718 726 733 733 734 733 728 735 728 723 728 735 758 767 763 763 763 767 767 770 771 772 773 775 777 778 781 784 786 790 792 796 800 803 805 808 809 811 812 814 815 816 817 817 818 818 819 819 820 821 821 823 823 824 824 825 826 826 826 826 827 827 827 828 828 828 828 829 829 829 829 829 829 828 828 828 828 827 827 826 826 826 826
763 758 762 768 761 759 756 752 743 740 736 722 720 717 721 729 730 728 731 734 732 731 721 718 726 741 761 765 768 766 764 768 768 771 771 773 775 775 778 779 782 785 788 792 795 799 803 805 806 808 810 812 814 815 816 817 817 818 818 818 819 819 820 821 822 823 823 824 825 825 826 826 827 827 827 828 828 828 828 828 829 829 829 830 830 830 830 829 829 829 830 829 828 827 827 827 827
757 754 759 766 763 759 753 750 743 743 737 721 720 721 726 728 724 727 727 732 730 717 713 720 726 743 758 760 768 764 762 767 768 771 772 774 775 776 779 780 783 785 789 792 796 802 804 806 806 808 810 812 813 814 814 814 815 815 816 817 818 819 820 820 821 822 823 824 824 825 826 826 827 827 827 828 828 828 828 829 829 829 830 830 830 830 830 830 830 830 831 830 830 829 828 828 828
751 753 761 767 767 763 752 743 742 747 734 721 723 721 729 728 720 727 721 718 726 719 722 733 731 740 748 748 757 758 760 766 768 771 772 775 776 778 779 781 784 786 790 794 798 802 802 803 804 807 809 809 810 809 810 810 811 812 813 815 816 818 818 819 820 821 822 823 823 824 825 825 826 826 826 827 827 828 828 829 829 830 830 830 830 830 831 831 831 831 831 831 831 830 829 829 829
749 757 767 770 767 762 750 740 740 742 731 726 726 722 733 732 721 723 713 712 729 733 734 740 737 740 746 747 753 756 762 766 768 772 772 775 776 778 781 782 785 788 795 798 800 799 796 800 803 806 805 804 803 802 804 805 807 809 811 813 815 817 817 818 819 820 822 823 823 824 824 825 825 825 826 826 826 827 828 828 829 830 830 831 831 831 831 831 831 831 831 832 832 831 831 830 830
754 763 772 771 764 755 741 732 729 727 727 731 727 723 731 732 727 722 717 721 733 740 740 742 744 746 751 754 757 760 765 767 768 771 772 775 775 778 780 782 786 792 799 799 798 797 798 801 803 804 802 801 800 800 801 803 805 807 810 813 815 817 817 818 819 820 822 822 823 823 824 824 824 825 825 825 826 826 827 828 829 830 831 831 832 831 832 832 832 832 832 832 832 832 832 831 831
758 763 769 766 755 741 727 723 725 726 730 732 728 725 725 726 726 722 727 732 733 745 748 747 753 754 755 758 761 764 766 768 769 770 772 774 775 777 779 783 789 795 797 796 795 799 802 803 802 802 801 802 802 802 803 804 806 809 811 813 815 817 819 819 819 820 821 822 823 823 824 824 824 825 825 825 826 826 826 828 829 831 832 832 832 832 833 832 833 832 832 832 832 833 832 832 832
756 759 767 759 743 733 721 722 730 731 731 733 732 727 724 722 720 722 732 733 732 747 752 751 759 761 760 761 763 765 766 768 769 769 771 773 775 776 780 787 791 793 795 795 797 800 802 802 802 802 802 802 803 803 804 805 808 810 811 812 814 817 818 819 819 820 821 822 823 823 824 824 825 826 826 826 825 825 826 828 829 831 832 833 833 833 833 833 833 833 833 832 832 832 832 832 832
753 755 761 747 734 734 724 723 730 732 733 734 733 730 729 721 717 723 730 736 738 742 745 748 757 760 761 764 764 766 767 768 769 769 770 772 775 778 783 788 790 791 794 797 798 799 800 801 801 802 803 803 804 804 805 807 809 810 811 812 815 817 817 818 819 820 821 822 823 824 825 824 825 826 826 827 827 826 826 828 830 831 833 834 834 834 834 834 833 833 833 833 832 832 831 831 832
752 751 750 739 734 738 729 725 729 733 735 737 735 734 731 721 723 727 726 740 743 736 741 746 751 755 759 764 765 766 767 768 768 769 770 773 776 780 785 787 789 792 795 796 797 798 799 800 801 802 803 804 805 805 805 807 809 811 812 814 816 817 817 818 820 821 822 823 825 826 826 826 826 827 827 827 828 828 828 829 830 832 833 834 835 835 835 835 834 833 833 833 832 832 831 831 832
754 750 743 739 737 739 731 727 731 735 740 740 737 734 729 728 734 729 725 739 741 734 739 745 749 752 755 760 764 766 767 768 768 768 770 773 778 782 785 787 788 791 794 795 796 797 798 799 801 802 803 804 805 805 807 809 810 812 814 815 816 817 817 819 822 823 824 825 826 828 828 828 827 827 827 827 828 829 830 830 830 831 833 835 835 835 835 834 834 833 833 832 832 831 831 831 831
752 751 742 737 737 738 733 730 734 739 742 738 733 735 736 738 737 730 729 735 736 736 738 743 748 750 755 760 764 766 767 767 768 769 771 775 780 783 784 786 788 789 792 794 795 796 797 799 801 802 804 805 805 806 808 810 812 813 815 816 817 818 819 821 824 825 826 827 828 830 830 829 828 827 827 827 827 829 830 830 829 829 832 834 835 835 835 834 833 832 832 832 831 831 831 831 830
749 750 742 736 735 736 733 733 737 739 739 736 735 741 740 735 731 730 732 732 734 739 740 744 749 752 757 761 764 766 767 768 769 770 773 777 780 782 784 786 787 789 791 793 795 796 797 799 801 803 804 805 806 807 809 811 813 814 815 817 818 819 821 823 826 827 827 828 829 830 830 830 829 827 827 827 828 829 829 830 829 828 829 831 833 834 833 833 832 831 831 831 831 831 830 830 829
745 745 743 739 737 734 734 735 739 739 737 737 741 744 738 729 730 732 729 730 734 739 743 747 751 756 759 762 764 765 767 769 770 772 775 777 780 782 785 786 787 789 790 792 794 797 798 800 802 803 804 805 806 807 810 812 813 814 814 816 818 820 823 824 825 826 826 827 827 827 828 829 827 826 827 827 828 829 830 831 830 830 829 829 831 832 832 831 830 830 830 829 830 829 829 829 828
735 738 740 739 738 735 735 737 738 739 738 738 742 745 736 728 736 739 729 726 732 739 747 749 752 758 760 762 764 765 768 769 771 773 775 778 780 782 785 786 788 789 790 792 794 796 798 800 802 803 804 805 806 808 810 812 812 813 814 816 818 820 822 821 822 823 822 823 823 824 824 825 825 823 825 827 828 829 830 830 830 830 829 828 829 831 831 830 830 829 829 828 829 828 828 828 828
733 738 741 739 739 736 736 739 739 739 740 736 737 741 735 733 740 736 726 727 731 740 749 750 753 758 761 763 764 765 768 770 772 774 776 778 780 782 785 786 788 790 791 792 794 796 798 800 801 802 803 804 806 808 809 810 811 812 814 816 817 819 819 819 820 821 821 822 822 822 822 822 821 821 823 825 827 829 829 829 829 829 828 827 828 829 829 829 829 829 828 828 828 828 827 827 827
734 738 747 745 741 741 737 737 738 739 740 733 734 745 743 741 741 729 723 728 730 740 750 753 756 758 761 764 765 767 768 771 773 774 776 778 780 783 785 787 788 790 791 793 794 796 798 799 800 801 803 805 806 807 809 810 811 813 814 814 815 817 818 819 820 821 821 821 820 819 819 819 819 821 823 824 826 828 828 828 828 829 828 828 827 828 828 828 828 827 827 827 827 827 827 827 827
739 739 746 749 749 748 738 736 737 737 736 729 737 756 752 742 737 724 721 727 731 743 753 755 757 758 760 763 765 768 769 771 773 775 778 779 781 783 785 788 788 789 791 793 794 796 797 798 799 801 803 804 805 807 808 810 812 813 813 813 814 817 819 820 820 820 820 819 818 818 819 819 820 821 823 824 825 825 825 825 826 827 827 827 827 827 828 827 827 827 827 826 826 827 827 826 826
743 744 747 751 757 751 736 735 738 739 735 726 739 759 751 740 734 721 720 726 731 744 754 756 757 757 759 762 766 770 770 773 775 777 779 779 782 784 786 788 789 790 791 792 794 795 797 797 798 800 801 803 804 806 807 809 811 811 812 812 813 815 817 818 818 819 819 819 819 818 819 819 820 821 822 822 823 823 822 822 822 824 825 826 826 826 826 827 827 826 826 825 825 826 826 826 825
744 754 757 753 755 747 733 732 735 740 735 726 741 757 746 737 730 719 720 727 730 740 750 754 756 757 760 763 768 772 774 778 780 779 779 780 782 784 786 788 789 791 791 793 794 795 797 798 799 800 801 803 804 806 807 809 809 809 811 811 812 814 815 817 817 818 819 818 818 817 817 818 818 819 820 820 821 821 820 819 819 821 822 823 824 825 825 826 826 825 825 825 824 825 825 825 825
745 753 760 751 751 747 734 731 731 733 734 730 740 750 743 734 726 719 723 728 730 736 745 751 755 757 762 766 770 774 777 781 782 781 781 782 783 785 786 788 790 791 792 793 794 795 797 798 799 800 802 803 805 806 807 808 809 809 810 811 813 814 815 816 816 817 817 817 816 816 815 815 815 816 817 818 819 819 818 817 818 819 820 821 821 822 823 824 824 824 824 824 824 824 824 825 825
750 749 754 747 744 744 735 733 731 728 733 736 740 743 739 730 722 721 725 727 729 734 743 751 754 757 761 765 770 774 779 784 784 782 782 783 784 786 787 789 790 791 792 793 794 795 796 798 799 800 801 803 804 805 806 807 808 809 810 810 812 812 813 814 814 814 814 814 814 814 813 812 812 812 813 815 816 817 817 816 817 819 820 820 820 820 820 821 822 823 823 823 823 823 823 824 824
750 749 752 747 739 738 734 732 731 728 733 738 741 744 739 728 721 723 726 726 728 734 743 749 753 758 760 763 769 774 781 785 785 784 784 785 786 787 788 790 791 792 792 793 794 795 796 798 798 799 801 801 802 803 804 805 806 807 808 808 809 810 810 811 811 811 811 811 811 811 811 810 809 809 810 812 813 814 815 815 816 818 819 819 818 818 818 819 819 820 821 821 821 822 822 823 823
739 739 744 745 738 734 728 723 724 726 734 738 739 742 739 730 724 725 729 726 725 734 743 749 753 757 761 766 772 778 785 788 786 786 786 786 787 789 790 791 792 792 793 793 794 795 796 797 798 799 800 800 801 802 802 804 805 805 806 807 807 808 808 808 809 809 809 809 809 809 809 809 808 808 808 809 810 811 812 813 813 815 817 817 817 816 816 816 817 817 818 819 820 820 821 821 822
729 731 735 737 734 731 720 716 718 721 734 738 733 736 733 726 724 725 729 728 729 738 747 751 755 759 765 772 779 784 790 793 791 788 788 788 789 790 791 792 792 793 794 794 795 795 796 797 798 798 799 800 800 801 802 802 803 804 804 805 805 805 806 806 806 806 806 806 806 806 807 807 807 807 807 808 808 808 809 810 811 812 813 814 814 814 814 814 815 816 816 817 818 818 819 820 820
729 727 730 732 731 725 713 710 715 718 731 737 730 732 730 722 722 723 726 730 735 743 750 753 754 759 768 773 779 785 791 794 793 790 789 790 791 792 792 793 793 794 794 795 795 796 796 797 797 798 798 799 799 800 801 802 803 803 803 803 804 804 804 804 805 804 804 804 803 804 804 805 805 805 805 805 805 806 806 807 808 809 809 810 811 811 811 811 812 814 815 815 816 816 816 817 818
734 727 727 731 727 721 713 708 711 717 729 735 730 732 729 718 718 723 725 728 734 741 746 751 753 759 768 773 778 785 791 794 793 792 791 791 791 792 793 794 794 794 794 795 795 796 797 797 797 798 798 798 799 800 800 801 802 802 803 803 803 803 803 803 803 802 802 802 802 802 802 803 803 803 803 803 804 804 805 806 806 807 807 807 807 808 808 808 809 811 812 813 814 815 814 815 816
737 731 729 730 722 722 724 713 710 716 725 730 729 733 728 718 720 725 725 725 729 737 742 745 751 757 764 770 776 785 792 797 795 793 793 792 793 793 793 794 793 794 795 795 796 797 797 797 797 797 797 798 799 799 800 800 801 802 802 803 802 802 802 802 801 801 801 801 801 801 801 801 801 802 802 802 802 802 803 804 804 804 804 804 804 805 805 805 806 807 810 811 812 813 812 812 814
736 730 729 727 718 719 721 712 707 716 726 726 728 741 734 722 729 732 728 729 730 734 737 742 749 755 761 767 773 780 790 799 799 794 794 793 792 792 792 792 793 794 795 796 797 797 797 797 797 797 797 798 798 798 799 799 800 801 801 802 802 801 801 801 800 800 799 799 799 799 800 800 800 801 801 800 800 801 801 801 802 801 801 801 801 802 802 802 803 804 806 808 810 811 810 810 812
737 730 725 721 715 713 713 711 714 731 744 731 729 754 751 728 730 734 731 734 734 734 737 745 756 760 763 768 772 776 784 793 797 794 793 792 790 791 791 792 793 794 796 797 798 798 798 797 797 797 797 797 798 798 798 799 799 800 800 801 801 800 800 799 799 799 799 799 798 798 799 799 799 799 799 799 799 799 800 799 799 799 799 799 799 799 799 799 800 800 803 805 807 809 809 809 810
740 729 721 719 714 709 711 716 726 743 750 732 725 751 757 738 735 734 730 737 740 741 744 750 761 766 766 771 774 776 781 786 791 792 792 793 792 792 793 794 795 796 797 798 799 799 798 798 798 797 797 797 798 798 798 799 799 799 800 800 800 800 799 799 798 798 798 798 798 797 798 798 798 798 798 798 798 798 798 798 797 797 797 797 797 797 797 797 797 797 799 801 803 805 806 807 807
738 722 718 722 718 713 715 721 732 736 736 733 726 734 747 746 741 735 732 742 747 747 749 750 758 765 768 773 776 779 783 784 788 792 793 795 795 794 795 796 797 797 798 799 799 800 799 799 798 798 798 798 798 798 798 798 799 799 799 799 799 799 799 798 798 797 797 797 797 796 796 796 796 796 796 796 796 796 796 796 796 795 795 795 795 795 795 795 795 795 797 798 800 802 802 803 805
729 715 715 719 719 717 713 719 729 728 735 748 736 728 746 751 739 731 732 743 750 748 748 750 755 765 770 775 779 781 783 785 788 792 793 794 795 796 797 798 798 799 800 800 800 801 800 799 799 798 798 798 798 798 798 799 799 799 799 799 799 799 798 798 797 797 797 796 796 795 795 795 795 795 795 795 795 795 794 794 794 794 794 793 793 793 793 793 793 794 794 796 797 798 799 800 802
720 712 714 715 717 717 714 718 723 729 747 757 741 731 749 752 736 732 737 742 748 745 748 756 761 768 774 777 780 781 783 785 788 790 792 793 795 797 799 799 800 800 800 801 801 801 801 800 799 799 798 798 798 799 799 799 799 799 799 799 799 799 798 797 797 796 796 795 795 794 794 793 793 794 794 794 793 792 792 791 791 791 791 792 791 791 791 791 792 792 792 793 794 795 797 798 800
717 715 716 719 721 718 721 718 716 738 758 752 736 727 742 755 737 726 734 737 739 741 749 764 771 776 781 783 784 784 785 786 788 791 792 794 796 798 800 800 801 801 801 801 801 801 801 800 799 799 799 799 799 799 799 799 799 799 799 799 799 799 798 797 797 796 795 795 794 793 793 792 792 792 792 791 789 789 789 788 788 788 789 789 789 789 789 789 789 790 790 791 792 793 795 796 798
718 721 720 728 733 730 734 727 723 751 763 745 730 721 736 758 740 719 724 727 728 736 748 764 776 783 787 789 790 789 788 789 791 794 795 796 798 799 800 801 801 802 802 802 801 801 801 800 800 799 799 799 799 799 800 800 800 799 799 799 799 798 798 797 797 796 795 794 794 793 792 792 791 791 790 789 788 788 788 787 786 785 785 786 787 786 786 786 787 788 788 789 789 791 793 795 797
720 725 725 737 749 753 756 747 740 754 754 734 724 724 735 748 738 721 719 723 728 737 749 762 772 779 785 789 791 791 792 793 795 796 796 797 798 800 801 802 802 803 802 802 802 802 801 800 800 800 800 800 800 800 800 800 800 800 799 799 799 798 798 797 796 796 795 794 793 792 791 791 791 790 789 789 789 788 788 787 786 784 784 784 784 784 784 784 784 786 786 786 787 788 791 793 794
722 726 730 739 750 766 774 761 750 754 748 726 716 726 736 743 747 735 725 732 742 748 758 766 770 777 783 788 791 793 795 796 797 797 798 799 800 801 802 803 803 803 803 803 803 803 802 802 801 801 801 801 801 801 801 801 800 800 799 799 799 798 797 797 796 796 795 794 793 792 791 791 790 789 787 787 787 786 785 785 784 783 782 781 781 782 782 782 782 783 784 785 785 786 788 790 792
719 715 720 729 735 753 768 761 755 756 748 729 721 735 745 753 763 749 733 742 749 754 764 769 773 780 785 789 792 795 797 797 798 799 799 800 800 801 802 803 803 804 804 804 804 804 803 803 803 803 802 802 802 802 802 801 801 800 800 799 799 798 798 797 797 796 795 794 793 792 790 789 788 787 786 785 785 784 783 782 780 780 780 780 779 780 780 780 780 781 782 783 784 785 786 788 790
718 708 715 724 721 728 745 748 743 747 752 742 739 757 761 759 764 752 743 750 753 760 770 774 781 784 786 792 794 795 798 799 800 800 800 800 800 801 802 803 804 804 805 805 805 805 805 805 804 803 803 803 802 803 802 802 801 800 800 800 799 799 798 797 796 796 795 794 793 791 789 788 787 786 784 783 783 782 781 780 778 778 779 779 778 778 779 779 779 779 780 781 782 783 784 785 788
716 715 719 714 707 714 734 746 738 743 761 751 746 773 776 767 772 765 755 759 762 769 776 779 785 786 788 794 795 797 800 800 800 799 800 800 800 802 803 803 805 805 806 806 805 806 806 805 805 804 804 803 803 803 803 802 802 801 801 800 800 799 798 798 797 796 795 794 792 791 789 787 786 784 783 782 780 779 779 778 777 777 777 777 776 777 778 778 778 778 778 779 779 781 783 784 787
711 723 715 703 707 713 724 745 750 755 769 751 743 773 782 776 784 779 769 769 770 773 778 783 788 788 792 795 796 800 801 800 800 799 800 801 801 803 803 804 805 806 806 806 806 807 806 806 806 805 804 804 804 804 803 803 802 802 802 801 800 800 798 798 797 796 795 793 792 790 788 786 784 782 781 780 778 776 777 777 776 776 776 775 775 775 776 777 777 777 777 777 777 779 781 783 786
699 709 702 704 725 729 725 741 753 762 771 755 747 766 773 769 777 779 775 773 772 775 780 787 790 791 794 796 798 801 801 801 801 800 801 802 802 804 804 805 806 806 807 807 807 808 807 807 806 805 805 805 805 805 804 804 803 803 803 802 801 800 799 798 796 796 794 793 791 789 787 785 783 781 779 778 777 775 775 776 775 775 776 775 775 775 775 776 776 776 775 775 776 777 779 781 784
695 700 700 705 719 725 726 731 738 751 763 759 759 770 765 755 760 768 768 767 770 777 783 788 792 792 794 797 799 801 802 802 801 801 802 802 804 805 805 806 806 806 807 807 808 809 808 808 807 806 806 805 805 805 805 805 804 803 803 802 801 800 799 798 796 795 794 792 791 790 787 785 783 781 779 777 776 774 773 773 774 775 775 775 775 774 775 775 775 775 774 775 776 777 778 780 783
705 707 710 713 714 716 721 722 721 734 749 754 763 772 763 748 747 752 756 761 766 774 783 789 791 792 795 798 800 801 802 803 802 803 804 804 806 806 806 807 807 807 808 808 809 810 809 809 807 807 807 806 806 806 805 805 804 804 803 802 801 800 798 797 796 795 794 792 791 789 787 785 782 780 778 776 774 773 772 771 770 773 775 775 774 774 775 775 775 775 774 775 776 778 779 780 782
705 709 710 714 716 720 731 734 721 718 731 739 746 761 765 754 746 746 749 757 765 770 781 790 791 793 797 799 801 802 803 804 804 805 805 806 806 806 806 807 808 808 809 809 810 810 810 809 808 808 807 807 807 806 806 806 805 804 804 802 801 800 799 797 796 795 793 792 791 789 787 785 782 780 778 776 774 773 771 768 768 771 775 776 776 776 776 775 775 775 774 775 776 777 778 779 781